Date String (YYYY-MM-DD hh:mm:ss) UTC,Instrument flags,absolute air pressure of the measurement (hPa),sample flow rate (lpm),inlet stack bypass flow (lpm),air temperature of the measurement (°C),ambient temperature measured by the external sensor (°C),aerosol sample conditioner tube jacket temperature (°C),OPC LED temperature (°C),internal box temperature (°C),relative humidity of the measurement (%),span deviation,mass concentration of particles derived from Lorenz-Mie calculation of OPC scattering (μg/m³),mass concentration of particles derived from Lorenz-Mie calculation of OPC scattering (μg/m³),mass concentration of particles derived from Lorenz-Mie calculation of OPC scattering (μg/m³)
DateTimeUTC,F1_M11,P_M11,Q1_M11,Q2_M11,T1_M11,T2_M11,T3_M11,T4_M11,T5_M11,U1_M11,ZSPAN_M11,X0_M11,X2_M11,X1_M11
2024-01-02 19:00:00,SystemResetWarning,0831.5,5.00,000.00,023.3,022.7,000.0,031.5,024.9,12.9,0000.0,0011.52,0004.39,0003.94
2024-01-02 19:01:00,SystemResetWarning,0831.5,5.00,000.00,023.3,022.7,000.0,031.5,024.9,12.8,0000.0,0011.43,0004.39,0003.94
2024-01-02 19:02:00,SystemResetWarning,0831.5,5.00,000.00,023.4,022.7,000.0,031.5,024.9,12.9,0000.0,0011.34,0004.37,0003.92
2024-01-02 19:03:00,SystemResetWarning,0831.5,5.00,000.00,023.4,022.7,000.0,031.5,024.9,12.9,0000.0,0011.38,0004.35,0003.91
2024-01-02 19:04:00,SystemResetWarning,0831.4,5.00,000.00,023.4,022.8,000.0,031.5,024.9,13.0,0000.0,0011.24,0004.31,0003.89
2024-01-02 19:05:00,SystemResetWarning,0831.4,5.00,000.00,023.4,022.8,000.0,031.6,024.9,13.0,0000.0,0010.65,0004.31,0003.89
2024-01-02 19:06:00,SystemResetWarning,0831.4,5.01,000.00,023.4,022.8,000.0,031.6,025.0,13.1,0000.0,0010.44,0004.34,0003.89
2024-01-02 19:07:00,SystemResetWarning,0831.4,5.00,000.00,023.5,022.8,000.0,031.6,025.0,13.0,0000.0,0010.00,0004.40,0003.92
2024-01-02 19:08:00,SystemResetWarning,0831.3,4.99,000.00,023.5,022.8,000.0,031.6,025.0,13.1,0000.0,0009.67,0004.44,0003.93
2024-01-02 19:09:00,SystemResetWarning,0831.3,5.00,000.00,023.5,022.9,000.0,031.6,025.0,13.0,0000.0,0009.40,0004.44,0003.95
2024-01-02 19:10:00,SystemResetWarning,0831.3,5.01,000.00,023.5,022.9,000.0,031.6,025.0,12.9,0000.0,0008.92,0004.42,0003.95
2024-01-02 19:11:00,SystemResetWarning,0831.3,5.01,000.00,023.5,022.9,000.0,031.6,025.0,13.0,0000.0,0008.69,0004.42,0003.95
2024-01-02 19:12:00,SystemResetWarning,0831.3,5.00,000.00,023.5,022.9,000.0,031.7,025.0,12.9,0000.0,0008.53,0004.41,0003.95
2024-01-02 19:13:00,SystemResetWarning,0831.3,5.00,000.00,023.5,022.9,000.0,031.7,025.0,12.9,0000.0,0008.81,0004.46,0003.97
2024-01-02 19:14:00,SystemResetWarning,0831.2,5.00,000.00,023.5,022.9,000.0,031.7,025.0,13.1,0000.0,0008.75,0004.44,0003.97
2024-01-02 19:15:00,SystemResetWarning,0831.2,5.00,000.00,023.5,022.9,000.0,031.7,025.0,13.0,0000.0,0009.30,0004.48,0003.99
2024-01-02 19:16:00,SystemResetWarning,0831.2,5.00,000.00,023.6,022.9,000.0,031.7,025.0,13.1,0000.0,0009.33,0004.47,0003.99
2024-01-02 19:17:00,SystemResetWarning,0831.2,5.00,000.00,023.6,022.9,000.0,031.7,025.0,13.1,0000.0,0009.57,0004.45,0004.00
2024-01-02 19:18:00,SystemResetWarning,0831.2,5.00,000.00,023.6,022.9,000.0,031.7,025.1,13.1,0000.0,0009.80,0004.42,0004.01
2024-01-02 19:19:00,SystemResetWarning,0831.1,5.00,000.00,023.6,023.0,000.0,031.8,025.1,13.0,0000.0,0009.74,0004.41,0004.02
2024-01-02 19:20:00,SystemResetWarning,0831.1,5.00,000.00,023.6,023.0,000.0,031.8,025.0,13.0,0000.0,0010.00,0004.40,0004.03
2024-01-02 19:21:00,SystemResetWarning,0831.2,5.00,000.00,023.6,023.0,000.0,031.8,025.0,12.9,0000.0,0009.66,0004.40,0004.06
2024-01-02 19:22:00,SystemResetWarning,0831.1,5.00,000.00,023.6,023.0,000.0,031.8,025.1,12.9,0000.0,0009.26,0004.40,0004.09
2024-01-02 19:23:00,SystemResetWarning,0831.1,5.00,000.00,023.6,023.0,000.0,031.8,025.1,12.8,0000.0,0008.83,0004.44,0004.12
2024-01-02 19:24:00,SystemResetWarning,0831.0,5.01,000.00,023.7,023.0,000.0,031.8,025.1,12.8,0000.0,0008.69,0004.44,0004.13
2024-01-02 19:25:00,SystemResetWarning,0830.9,5.00,000.00,023.7,023.0,000.0,031.8,025.1,12.9,0000.0,0008.69,0004.48,0004.16
2024-01-02 19:26:00,SystemResetWarning,0830.9,5.00,000.00,023.7,023.0,000.0,031.8,025.1,12.9,0000.0,0008.37,0004.50,0004.19
2024-01-02 19:27:00,SystemResetWarning,0831.0,5.00,000.00,023.7,023.1,000.0,031.9,025.1,12.9,0000.0,0008.41,0004.55,0004.21
2024-01-02 19:28:00,SystemResetWarning,0830.9,5.00,000.00,023.7,023.1,000.0,031.9,025.1,12.9,0000.0,0008.19,0004.55,0004.23
2024-01-02 19:29:00,SystemResetWarning,0830.9,5.00,000.00,023.7,023.1,000.0,031.9,025.1,13.0,0000.0,0008.24,0004.61,0004.26
2024-01-02 19:30:00,SystemResetWarning,0830.9,5.00,000.00,023.7,023.1,000.0,031.9,025.1,12.9,0000.0,0008.38,0004.66,0004.29
2024-01-02 19:31:00,SystemResetWarning,0830.9,4.99,000.00,023.7,023.1,000.0,031.9,025.2,13.1,0000.0,0008.19,0004.71,0004.31
2024-01-02 19:32:00,SystemResetWarning,0830.9,5.00,000.00,023.7,023.1,000.0,031.9,025.2,13.0,0000.0,0008.19,0004.73,0004.34
2024-01-02 19:33:00,SystemResetWarning,0830.9,5.00,000.00,023.8,023.1,000.0,031.9,025.2,13.0,0000.0,0008.70,0004.77,0004.35
2024-01-02 19:34:00,SystemResetWarning,0830.9,5.00,000.00,023.8,023.1,000.0,031.9,025.2,12.8,0000.0,0008.86,0004.77,0004.36
2024-01-02 19:35:00,SystemResetWarning,0830.9,5.00,000.00,023.8,023.1,000.0,032.0,025.2,12.8,0000.0,0009.39,0004.78,0004.36
2024-01-02 19:36:00,SystemResetWarning,0830.9,5.00,000.00,023.8,023.2,000.0,032.0,025.2,12.8,0000.0,0009.70,0004.78,0004.38
2024-01-02 19:37:00,SystemResetWarning,0830.9,5.00,000.00,023.8,023.2,000.0,032.0,025.2,12.7,0000.0,0009.72,0004.80,0004.37
2024-01-02 19:38:00,SystemResetWarning,0830.8,5.00,000.00,023.8,023.2,000.0,032.0,025.2,12.8,0000.0,0009.52,0004.79,0004.37
2024-01-02 19:39:00,SystemResetWarning,0830.8,5.00,000.00,023.8,023.2,000.0,032.0,025.2,12.8,0000.0,0009.71,0004.80,0004.38
2024-01-02 19:40:00,SystemResetWarning,0830.8,5.01,000.00,023.8,023.2,000.0,032.0,025.2,12.7,0000.0,0010.64,0004.78,0004.37
2024-01-02 19:41:00,SystemResetWarning,0830.7,4.99,000.00,023.8,023.2,000.0,032.0,025.2,12.6,0000.0,0010.93,0004.77,0004.36
2024-01-02 19:42:00,SystemResetWarning,0830.7,4.99,000.00,023.8,023.2,000.0,032.0,025.2,12.7,0000.0,0011.31,0004.77,0004.36
2024-01-02 19:43:00,SystemResetWarning,0830.7,5.01,000.00,023.8,023.2,000.0,032.0,025.2,12.7,0000.0,0011.58,0004.77,0004.35
2024-01-02 19:44:00,SystemResetWarning,0830.7,5.00,000.00,023.8,023.2,000.0,032.0,025.2,12.7,0000.0,0011.44,0004.76,0004.35
2024-01-02 19:45:00,SystemResetWarning,0830.7,4.99,000.00,023.9,023.2,000.0,032.1,025.3,12.6,0000.0,0011.16,0004.77,0004.35
2024-01-02 19:46:00,SystemResetWarning,0830.7,5.01,000.00,023.9,023.2,000.0,032.1,025.3,12.7,0000.0,0011.10,0004.79,0004.35
2024-01-02 19:47:00,SystemResetWarning,0830.7,5.01,000.00,023.9,023.3,000.0,032.1,025.3,12.7,0000.0,0010.94,0004.80,0004.36
2024-01-02 19:48:00,SystemResetWarning,0830.7,4.99,000.00,023.9,023.3,000.0,032.1,025.3,12.7,0000.0,0011.10,0004.83,0004.38
2024-01-02 19:49:00,SystemResetWarning,0830.6,4.99,000.00,023.9,023.3,000.0,032.1,025.3,12.6,0000.0,0011.13,0004.84,0004.39
2024-01-02 19:50:00,SystemResetWarning,0830.6,5.00,000.00,023.9,023.3,000.0,032.1,025.3,12.6,0000.0,0011.10,0004.88,0004.40
2024-01-02 19:51:00,SystemResetWarning,0830.6,5.00,000.00,023.9,023.3,000.0,032.1,025.4,12.6,0000.0,0009.78,0004.87,0004.41
2024-01-02 19:52:00,SystemResetWarning,0830.6,5.01,000.00,023.9,023.3,000.0,032.1,025.4,12.7,0000.0,0009.45,0004.87,0004.43
2024-01-02 19:53:00,SystemResetWarning,0830.5,5.00,000.00,023.9,023.3,000.0,032.1,025.4,12.6,0000.0,0009.65,0004.89,0004.44
2024-01-02 19:54:00,SystemResetWarning,0830.6,5.00,000.00,024.0,023.3,000.0,032.2,025.4,12.5,0000.0,0010.15,0004.92,0004.45
2024-01-02 19:55:00,SystemResetWarning,0830.6,4.99,000.00,024.0,023.3,000.0,032.2,025.4,12.6,0000.0,0010.58,0004.92,0004.47
2024-01-02 19:56:00,SystemResetWarning,0830.5,4.99,000.00,024.0,023.4,000.0,032.2,025.5,12.6,0000.0,0010.77,0004.89,0004.48
2024-01-02 19:57:00,SystemResetWarning,0830.6,5.01,000.00,024.0,023.4,000.0,032.2,025.5,12.6,0000.0,0010.96,0004.90,0004.48
2024-01-02 19:58:00,SystemResetWarning,0830.5,5.00,000.00,024.0,023.4,000.0,032.2,025.5,12.6,0000.0,0010.70,0004.89,0004.49
2024-01-02 19:59:00,SystemResetWarning,0830.4,5.01,000.00,024.0,023.4,000.0,032.2,025.5,12.7,0000.0,0011.39,0004.86,0004.50
